Orbital Elements
332P-A/Ikeya-Murakami
Epoch 2021 Aug. 14.0 TT = JDT 2459440.5
T 2021 Aug. 18.41614 TT MPCW
q 1.5771353 (2000.0) P Q
n 0.18151629 Peri. 152.34027 -0.91403049 -0.40550271
a 3.0892922 Node 3.78611 +0.33554609 -0.77071924
e 0.4894833 Incl. 9.37999 +0.22794098 -0.49148693
P 5.43
From 909 observations 2010 Nov. 3-2016 May 3, mean residual 0".6.
332P-C/Ikeya-Murakami
Epoch 2021 Aug. 14.0 TT = JDT 2459440.5
T 2021 Aug. 18.33818 TT MPCW
q 1.5771010 (2000.0) P Q
n 0.18151930 Peri. 152.33155 -0.91397181 -0.40563494
a 3.0892580 Node 3.78653 +0.33566124 -0.77067874
e 0.4894887 Incl. 9.37906 +0.22800671 -0.49144133
P 5.43
From 851 observations 2010 Nov. 3-2016 May 5, mean residual 0".6.
332P-H/Ikeya-Murakami
Epoch 2021 Aug. 14.0 TT = JDT 2459440.5
T 2021 Aug. 18.69643 TT MPCW
q 1.5770867 (2000.0) P Q
n 0.18150297 Peri. 152.33224 -0.91397482 -0.40562816
a 3.0894433 Node 3.78627 +0.33565354 -0.77067677
e 0.4895240 Incl. 9.37957 +0.22800596 -0.49145002
P 5.43
From 501 observations 2010 Nov. 3-2016 Mar. 29, mean residual 0".7.
|